Location: München
(48.1351°N, 11.5820°E)
Time: 19:30:16
(UTC+02:00)

ISS - Pass Details

Date: 18 May 2021
Orbit: 417 x 422 km, 51.6° (Epoch: 16 June)

Event Time Altitude Azimuth Distance (km) Brightness Sun altitude
Rises 22:52:31 0° 264° (W) 2,361 0.4 -15.5°
Reaches altitude 10° 22:54:39 10° 269° (W) 1,499 -0.5 -15.7°
Maximum altitude 22:57:57 53° 348° (NNW) 523 -3.0 -16.0°
Drops below altitude 10° 23:01:16 10° 67° (ENE) 1,505 -1.0 -16.2°
Sets 23:03:24 0° 72° (ENE) 2,372 -0.1 -16.4°
